User: anonymous   Login
Location: Newark
(46.3567°N, 6.1428°E)
Time: 22:18:04
(UTC+00:00)
Language:

First-Move - Orbit

View from above orbital plane
View from above orbital plane
View from above satellite
View from above satellite

Ground track
Ground track

The orbit data is extracted from the following two-line orbital elements,

1 39439U 13066Z   21169.42854594  .00000547  00000-0  71847-4 0  9991
2 39439  97.5978 155.1652 0065266 154.4246 206.0221 14.82616163408093
Epoch (UTC): 18 June 2021 10:17:06
Eccentricity: 0.0065266
inclination: 97.5978°
perigee height: 575 km
apogee height: 667 km
right ascension of ascending node: 155.1652°
argument of perigee: 154.4246°
revolutions per day: 14.82616163
mean anomaly at epoch: 206.0221°
orbit number at epoch: 40809

The dashed part of the orbit path shows where the satellite is in the earth's shadow,  

DLR